Regional Weather Roundup
Issued by NWS Grand Forks, ND

Home | Current Version | Previous Version | Graphics & Text | Print | Product List | Glossary On
Versions: 1 2 3 4 5 6 7 8 9 10 11 12 13 14 15 16 17 18 19 20 21 22 23 24 25 26 27 28 29 30 31 32 33 34 35 36 37 38 39 40 41 42 43 44 45 46 47 48 49 50
000
ASUS43 KFGF 160131
RWRFGF
PRAIRIE TO PINES  WEATHER ROUNDUP
NATIONAL WEATHER SERVICE EASTERN NORTH DAKOTA/GRAND FORKS ND
800 PM CDT MON SEP 15 2014

 **SATELLITE DATA USED TO AUGMENT SKY COVER AT AUTOMATED STATIONS**
 *****  WEATHER ACROSS EASTERN NORTH DAKOTA  *****

CITY           SKY/WX    TMP DP  RH WIND       PRES   REMARKS
GRAND FORKS    PTCLDY    53  43  68 SW7       30.07F
GRAND FRKS AFB CLEAR     56  43  59 SW5       30.08F
GRAND FRKS NWS   N/A     52 N/A N/A W3          N/A
DEVILS LAKE    CLEAR     57  39  51 W5        30.07F
FARGO          CLEAR     54  39  57 SW8       30.13F
WAHPETON ARPT  CLEAR     50  36  57 S6        30.17S
$$

 ***** WEATHER ACROSS CENTRAL AND WESTERN NORTH DAKOTA  *****

CITY           SKY/WX    TMP DP  RH WIND       PRES   REMARKS
BISMARCK       CLEAR     60  39  45 S6        30.12F
MINOT          CLEAR     60  35  39 SW3       30.07F
JAMESTOWN      CLEAR     53  40  61 S5        30.13F
MINOT AFB      CLEAR     58  38  47 SW7       30.06F
GARRISON         N/A     58  43  57 CALM      30.09F
WILLISTON      CLEAR     63  32  31 S3        30.06F
DICKINSON      CLEAR     58  39  49 S5        30.09F
HETTINGER      CLEAR     58  39  49 S7        30.12F
$$

 *****  OTHER AIRPORT OBSERVATIONS IN OUR AREA  *****

CITY           SKY/WX    TMP DP  RH WIND       PRES   REMARKS
WALHALLA         N/A     57  37  47 SW3       30.05F
GRAFTON AIRPOR FAIR      54  41  62 W9        30.06S
VALLEY CITY AR FAIR      52  41  66 SW7       30.14S
CANDO          FAIR      50  37  62 SW6       30.09S
CAVALIER APRT  FAIR      50  43  76 W5        30.06S
GWINNER        CLEAR     50  43  76 S8        30.18S
ROLLA          FAIR      48  41  76 SW7       30.08F
 ***** THE ABOVE OBSERVATIONS ARE NON NWS ARE NOT QUALITY
       CONTROLLED AND MAY MIS-REPORT RAIN FOR SNOW...
$$

  *****  WEATHER ACROSS NORTHERN MINNESOTA  *****

CITY           SKY/WX    TMP DP  RH WIND       PRES   REMARKS
FLAG ISLAND    CLEAR     55  41  58 SW8       30.03F
WARROAD        CLEAR     50  41  71 S3        30.06F
ROSEAU         PTCLDY    50  41  71 S5        30.06S
HALLOCK        CLEAR     54  43  66 W7        30.05S
THF RVR FALLS  CLEAR     50  39  66 S8        30.08F
BAUDETTE       CLEAR     49  40  71 S3        30.07F
WASKISH        PTCLDY    48  43  81 CALM      30.10S
CROOKSTON      CLEAR     52  43  71 S8        30.10S
STEPHEN NDAWN    N/A     55  43  62 SW3         N/A
GREENBUSH NDAW   N/A     52  45  76 S5          N/A
$$
  *****  WEATHER ACROSS CENTRAL AND WEST MINNESOTA  *****

CITY           SKY/WX    TMP DP  RH WIND       PRES   REMARKS
FOSSTON        CLEAR     46  37  71 S6        30.13S HAZE
BEMIDJI        CLEAR     50  39  64 S5        30.12F
PARK RAPIDS    CLEAR     48  37  65 SW7       30.15F
ELBOW LAKE     FAIR      52  38  59 S3        30.19S
WADENA         CLEAR     46  37  71 SW5       30.18R
DETROIT LAKES  CLEAR     52  37  58 SW6       30.17S
MOORHEAD       CLEAR     55  43  62 S7        30.15S
FERGUS FALLS   CLEAR     54  37  54 S3        30.18S
MORRIS MN      CLEAR     50  41  71 CALM      30.20R
STAPLES        CLEAR     45  37  76 SW3       30.18S
$$
  *****  WEATHER ELSEWHERE ACROSS MINNESOTA  *****

CITY           SKY/WX    TMP DP  RH WIND       PRES   REMARKS
DULUTH         PTCLDY    48  37  65 W7        30.15S
INTRNTL FALLS  CLEAR     41  38  89 SW3       30.09S
ELY            CLEAR     45  37  76 CALM      30.11S
CLOQUET        CLEAR     45  37  76 SW3       30.16S
WHEATON        CLEAR     48  37  66 S6        30.21S
BRAINERD       CLEAR     47  41  80 S3        30.18S
HIBBING        CLEAR     44  38  79 SW5       30.13F
ALEXANDRIA     CLEAR     53  37  54 CALM      30.20F
SAINT CLOUD    CLEAR     51  42  71 CALM      30.20R
MINNEAPOLIS    CLEAR     54  38  54 W5        30.20S
$$

  *****  WEATHER ACROSS SOUTH DAKOTA  *****

CITY           SKY/WX    TMP DP  RH WIND       PRES   REMARKS
SIOUX FALLS    CLEAR     54  42  64 W3        30.23S
BROOKINGS      NOT AVBL
WATERTOWN      CLEAR     51  37  58 W3        30.21S
HURON          CLEAR     55  37  50 SE3       30.21F
SISSETON         N/A     50  41  71 SW5       30.18F
ABERDEEN       CLEAR     49  42  77 S7        30.19F
MITCHELL       CLEAR     57  40  52 CALM      30.22F
PIERRE         CLEAR     54  38  54 SE9       30.17F
MOBRIDGE       CLEAR     54  41  61 S7        30.14F
RAPID CITY     CLEAR     59  45  59 SE9       30.13F
$$

  *****  SOME WEATHER IN NEARBY STATES *****

CITY           SKY/WX    TMP DP  RH WIND       PRES   REMARKS
GLASGOW MT     CLEAR     63  39  41 E7        30.04S
GREAT FALLS MT CLEAR     69  42  37 NE8       30.01F
CHEYENNE WY    CLEAR     61  42  49 S16       30.27S
SCOTTSBLUFF NE CLEAR     65  46  50 SE13      30.17F
OMAHA NE       PTCLDY    56  47  71 CALM      30.24S
DES MOINES IA  PTCLDY    58  46  64 N6        30.22R
DAVENPORT IA   MOCLDY    53  49  86 CALM      30.19R
CHICAGO IL     CLOUDY    56  50  80 N12       30.13R
EAU CLAIRE WI  CLEAR     51  39  63 NW5       30.18R
LA CROSSE WI   CLEAR     52  44  74 CALM      30.18R
$$

  *****  SOME NATIONAL WEATHER *****

CITY           SKY/WX    TMP DP  RH WIND       PRES   REMARKS
LA GUARDIA NY  MOCLDY    65  49  56 S12       30.10F
RALEIGH NC     CLOUDY    70  65  84 CALM      30.15R
ATLANTA GA     CLOUDY    75  70  83 CALM      30.14S
NEW ORLEANS LA CLOUDY    79  76  90 S5        30.06S
OKLAHOMA CITY  MOCLDY    76  67  73 S8        30.10F
ALBUQUERQUE NM TSTM      72  57  59 E25G31    30.19R
SALT LAKE CITY PTCLDY    86  37  17 N6        30.04F
LOS ANGELES CA MOSUNNY   85  58  39 W14       29.71F
BOISE ID       MOCLDY    90  34  13 NE3       29.92F
SEATTLE WA     PTSUNNY   85  41  21 W5        29.80F
$$

*** WEATHER ACROSS MANITOBA...SASKATCHEWAN AND ONTARIO ***
                ***ONTARIO***

CITY           SKY/WX    TMP DP  RH WIND       PRES   REMARKS
GERALDTON      PTCLDY    43  39  87 SW2       29.98F
THUNDER BAY    CLEAR     46  41  81 SW5       30.06S
SIOUX LOOKOUT  PTCLDY    54  39  58 SW8       29.99S
TORONTO        CLOUDY    55  54  94 SW5       30.05F
BIG TROUT LK   LGT RAIN  43  41  93 N7        29.79R
PICKLE LAKE    PTCLDY    52  37  58 SW9       29.88F
DRYDEN         CLEAR     52  37  58 W12G18    30.02S
KENORA         MOCLDY    52  37  58 SW7       30.03F
$$
                *** MANITOBA***

CITY           SKY/WX    TMP DP  RH WIND       PRES   REMARKS
BRANDON        PTCLDY    55  45  67 SW8       30.01F
DAUPHIN        MOCLDY    59  46  63 SW6       29.94F
ISLAND LAKE    MOCLDY    46  45  93 N6        29.87R
PILOT MOUND      N/A     52  37  58 SW5         N/A
THE PAS        MOCLDY    59  46  63 NE7       29.89R
THOMPSON       LGT RAIN  34  32  93 NE10      30.02R
WINNIPEG       MOCLDY    57  39  51 SW7       30.02F
LYNN LAKE      CLOUDY    36  25  64 MISG      30.05R
CHURCHILL      MOCLDY    34  27  75 N12G20    30.00S
GILLAM         MOCLDY    36  32  87 N13       30.00R
$$
                ***SASKATCHEWAN***

CITY           SKY/WX    TMP DP  RH WIND       PRES   REMARKS
ESTEVAN        PTCLDY    55  39  54 SW6       30.05F
KINDERSLEY     CLEAR     68  39  34 S3        29.97F
LLOYDMINSTER   CLEAR     66  45  45 W3        29.93S
PRINCE ALBERT  PTCLDY    63  48  59 N3        29.93S
REGINA         PTCLDY    59  41  51 NW6       30.02R
YORKTON        PTCLDY    61  43  51 SW9       29.97F
N. BATTLEFORD  CLEAR     66  41  39 W5        29.95S
LA RONGE       MOCLDY    57  45  62 W2        29.93S
SASKATOON      PTCLDY    68  41  37 NW2       29.96F
SWIFT CURRENT    N/A     64  36  34 NE2       30.00
$$
NOTE: THESE ARE AUTOMATED STATIONS WITH LIMITED QUALITY CONTROL
      "FAIR" INDICATES FEW OR NO CLOUDS BELOW 12,000 FEET WITH NO
      SIGNIFICANT WEATHER AND/OR OBSTRUCTIONS TO VISIBILITY.
      SKY/WX - SKY CONDITION AND SIGNIFICANT WEATHER.
      TMP - AIR TEMPERATURE.    DP   - DEWPOINT TEMPERATURE.
      RH  - RELATIVE HUMIDITY.  PRES - PRESSURE.
      HX  - HEAT INDEX.         WCI  - WIND CHILL INDEX.
$


USA.gov is the U.S. government's official web portal to all federal, state and local government web resources and services.